Location: Hoyos del Collado
(40.3594°N, 5.2003°W)
Time: 12:42:46
(UTC+00:00)

ISS - Pass Details

Date: 25 June 2024
Orbit: 410 x 424 km, 51.6° (Epoch: 13 July)

Event Time Altitude Azimuth Distance (km) Brightness Sun altitude
Exits shadow 03:19:15 29° 237° (WSW) 784 -2.9 -14.3°
Maximum altitude 03:20:48 84° 324° (NW) 421 -3.8 -14.1°
Drops below altitude 10° 03:24:09 10° 52° (NE) 1,494 0.4 -13.7°
Sets 03:26:16 0° 53° (NE) 2,363 1.9 -13.4°
